Delavan, Wisconsin, United States (53115)
Lat: 42.63N, Lon: 88.64W
Wx Zone: WIZ070
Local Info
Past Weather Observations for Today

NOTE: This archive is for the closest National Weather Service station to Delavan. Information may differ from the station used for current weather conditions.

Click here for Long-term Archive

Time Weather Temperature Dewpoint Humidity Pressure Winds Precip Visibility
11:55
Partly Cloudy
66°F / 19°C 46°F / 8°C 49% 30.09 in
(1019 mb)
N 13.8 mph
(N 22 kph)
- 10SM
11:35
Partly Cloudy
66°F / 19°C 46°F / 8°C 49% 30.09 in
(1019 mb)
NNW 13.8 mph
(NNW 22 kph)
- 10SM
11:15
Partly Cloudy
66°F / 19°C 46°F / 8°C 49% 30.09 in
(1019 mb)
N 16.1 mph
(N 26 kph)
- 10SM
10:55
Clear
66°F / 19°C 45°F / 7°C 46% 30.09 in
(1019 mb)
N 15 mph
(N 24 kph)
- 10SM
10:35
Clear
64°F / 18°C 45°F / 7°C 49% 30.09 in
(1019 mb)
NNE 12.7 mph
(NNE 20 kph)
- 10SM
10:15
Clear
64°F / 18°C 45°F / 7°C 49% 30.09 in
(1019 mb)
N 13.8 mph
(N 22 kph)
- 10SM
09:55
Clear
64°F / 18°C 45°F / 7°C 49% 30.09 in
(1019 mb)
N 15 mph
(N 24 kph)
- 10SM
09:35
Clear
63°F / 17°C 48°F / 9°C 59% 30.09 in
(1019 mb)
N 9.2 mph
(N 15 kph)
- 10SM
09:15
Clear
61°F / 16°C 48°F / 9°C 63% 30.09 in
(1019 mb)
NNW 11.5 mph
(NNW 19 kph)
- 10SM
08:55
Clear
61°F / 16°C 46°F / 8°C 59% 30.09 in
(1019 mb)
N 9.2 mph
(N 15 kph)
- 10SM
08:35
Partly Cloudy
59°F / 15°C 48°F / 9°C 68% 30.09 in
(1019 mb)
N 12.7 mph
(N 20 kph)
- 10SM
08:15
Partly Cloudy
59°F / 15°C 46°F / 8°C 63% 30.09 in
(1019 mb)
N 15 mph
(N 24 kph)
- 10SM
07:55
Partly Cloudy
59°F / 15°C 48°F / 9°C 68% 30.09 in
(1019 mb)
N 12.7 mph
(N 20 kph)
- 10SM
07:35
Partly Cloudy
57°F / 14°C 48°F / 9°C 72% 30.09 in
(1019 mb)
N 16.1 mph
(N 26 kph)
- 10SM
07:15
Clear
57°F / 14°C 48°F / 9°C 72% 30.09 in
(1019 mb)
N 13.8 mph
(N 22 kph)
- 10SM
06:55
Clear
55°F / 13°C 50°F / 10°C 82% 30.06 in
(1018 mb)
NNW 9.2 mph
(NNW 15 kph)
- 10SM
06:35
Clear
55°F / 13°C 50°F / 10°C 82% 30.06 in
(1018 mb)
NNW 11.5 mph
(NNW 19 kph)
- 10SM
06:15
Clear
54°F / 12°C 50°F / 10°C 88% 30.06 in
(1018 mb)
NW 8.1 mph
(NW 13 kph)
- 10SM
05:55
Clear
54°F / 12°C 50°F / 10°C 88% 30.06 in
(1018 mb)
NW 6.9 mph
(NW 11 kph)
- 10SM
05:35
Clear
52°F / 11°C 50°F / 10°C 94% 30.04 in
(1017 mb)
NW 5.8 mph
(NW 9 kph)
- 10SM
05:15
Clear
52°F / 11°C 50°F / 10°C 94% 30.04 in
(1017 mb)
NW 5.8 mph
(NW 9 kph)
- 10SM
04:55
Clear
52°F / 11°C 50°F / 10°C 94% 30.04 in
(1017 mb)
NW 5.8 mph
(NW 9 kph)
- 10SM
04:35
Clear
52°F / 11°C 50°F / 10°C 94% 30.04 in
(1017 mb)
NNW 6.9 mph
(NNW 11 kph)
- 10SM
04:15
Clear
52°F / 11°C 50°F / 10°C 94% 30.01 in
(1016 mb)
NNW 5.8 mph
(NNW 9 kph)
- 10SM
03:55
Clear
54°F / 12°C 52°F / 11°C 94% 30.01 in
(1016 mb)
NNW 8.1 mph
(NNW 13 kph)
- 10SM
03:35
Clear
54°F / 12°C 52°F / 11°C 94% 30.01 in
(1016 mb)
NNW 9.2 mph
(NNW 15 kph)
- 10SM
03:15
Clear
54°F / 12°C 52°F / 11°C 94% 30.01 in
(1016 mb)
NW 8.1 mph
(NW 13 kph)
- 10SM
02:55
Clear
54°F / 12°C 52°F / 11°C 94% 29.98 in
(1015 mb)
NW 6.9 mph
(NW 11 kph)
- 10SM
02:35
Clear
55°F / 13°C 52°F / 11°C 88% 29.98 in
(1015 mb)
NNW 8.1 mph
(NNW 13 kph)
- 10SM
02:15
Clear
55°F / 13°C 52°F / 11°C 88% 29.98 in
(1015 mb)
NNW 8.1 mph
(NNW 13 kph)
- 10SM
01:55
Partly Cloudy
54°F / 12°C 52°F / 11°C 94% 29.98 in
(1015 mb)
NW 6.9 mph
(NW 11 kph)
- 10SM
01:35
Overcast
55°F / 13°C 52°F / 11°C 88% 29.98 in
(1015 mb)
NW 4.6 mph
(NW 7 kph)
- 10SM
01:15
Partly Cloudy
57°F / 14°C 50°F / 10°C 77% 29.98 in
(1015 mb)
NW 6.9 mph
(NW 11 kph)
- 10SM
00:50
Clear
57°F / 14°C 50°F / 10°C 77% 29.98 in
(1015 mb)
NNW 9.2 mph
(NNW 15 kph)
- 10SM
00:35
Clear
59°F / 15°C 50°F / 10°C 72% 29.98 in
(1015 mb)
NNW 10.4 mph
(NNW 17 kph)
- 10SM
00:15
Clear
59°F / 15°C 50°F / 10°C 72% 29.98 in
(1015 mb)
NNW 10.4 mph
(NNW 17 kph)
- 10SM
Time Weather Temperature Dewpoint Humidity Pressure Winds Precip Visibility


Weather for websites

WeatherForYou.com, LLC is not responsible for any damages or problems caused by this service. Current weather conditions are obtained from the closest station including government and personal stations which may have varying degrees of accuracy. Weather forecasts are derived from the NOAA NDFD. Like all things, this site belongs to Jesus Christ... He just trusts me to maintain it. If you have any questions or comments email webmaster@weatherforyou.com

Copyright © 2014, WeatherForYou.com LLC. All rights reserved.